STARLINK-34548, 64716

Orbit data source: Space-Track

STARLINK-34548, 64716 is a payload satellite owned by SpaceX/Seattle (US) in LEO that was launched on Sat, 28 Jun 2025 UTC via an FALCON 9 launch vehicle from the Air Force Western Test Range (AFWTR). Payload-class satellites include a variety of spacecraft equipped with specific instruments for various scientific and technological missions. These include communications satellites like Starlink; space stations such as the ISS; scientific satellites like the Hubble; Earth observation satellites from companies like Planet Labs, Umbra, and HawkEye 360; GPS; miniature CubeSats for education and research; and military/defense satellites.

Loading next visibility...
Identifier
64716, 2025-142W
Orbit
LEO
Country
Flag of USUS
Related business
Manufacturer
SpaceX/Seattle
Mission
Operational Commercial Communications
Bus & Motor
STARLINK V2MO, Unknown motor
Mass
575 kg wet, ~530 kg dry
Launch date (UTC)
2025-06-28 (1 year ago)
Launch vehicle
FALCON 9
Launch site
Air Force Western Test Range (AFWTR)
Object type
Payload
Rocket body
Debris
Shape & HBR
Box + 1 Pan, 17.7 m
Radar Cross Section
41.120 m², Large (>1 m²)

Expand to show TLE details & history
Last TLE update: 13 hours ago

TLE from 13 hours ago
0 STARLINK-34548
1 64716U 25142W   26264.19170531  .00011685  00000-0  41020-3 0  9996
2 64716  70.0012 179.1937 0003000 276.9630  83.1204 15.29587611 68804
Epoch: 2026-09-21T04:36Z
TLE epoch observation values (Epoch: 2026-09-21T04:36:03.338Z)
Latitude
-0.00003°
Longitude
110.10471°
Altitude
479.256 km
Speed
7.626 km/s
True Right ascension
11h 56m 46s
True Declination
0° 00' 00"
Sunlit
Object was in daylight at epoch
Visualization orbit readout
Latitude
Unknown
Longitude
Unknown
Altitude
Unknown
Speed
Unknown
Apparent Right ascension
Unknown
Apparent Declination
Unknown
Sunlit
N/A
Visualization observer readout
Local Sidereal Time
10:58:21
Azimuth
Unknown
Elevation
Unknown
Doppler factor
Unknown
Orbital elements
Apogee altitude
477.02 km
Perigee altitude
472.908 km
Semi-major axis
6,853.101 km
Eccentricity
0.0003
Inclination
70.0012°
RAAN
179.1937°
Arg. of periapsis
276.963°
True anomaly
83.15453°
Mean anomaly
83.1204°
Eccentric anomaly
83.13747°
Mean motion
3.82571 °/min
Orbital period
94.1 mins
BSTAR
0.0004102
Loading maneuver chart data...
Computing Atmospheric mass density...
Loading historical data...
Loading historical data...
Loading historical data...
Loading historical data...
Loading historical data...
Loading historical data...
Loading historical data...

Documentation

Showing up to 5 results
|